User: anonymous   Login
Location: Fort Wayne
(41.1310°N, 85.1290°W)
Time: 12:55:08
(UTC-04:00)
Language:

COSMOS 2406 - Orbit

View from above orbital plane
View from above orbital plane
View from above satellite
View from above satellite

Ground track
Ground track

The orbit data is extracted from the following two-line orbital elements,

1 28352U 04021A   15181.22751133 -.00000236  00000-0 -10418-3 0  9997
2 28352 071.0023 183.5122 0012380 109.0811 328.2206 14.11419230569549
Epoch (UTC): 30 June 2015 05:27:36
Eccentricity: 0.0012380
inclination: 71.0023°
perigee height: 845 km
apogee height: 863 km
right ascension of ascending node: 183.5122°
argument of perigee: 109.0811°
revolutions per day: 14.11419230
mean anomaly at epoch: 328.2206°
orbit number at epoch: 56954

The dashed part of the orbit path shows where the satellite is in the earth's shadow,  

DLR